When you browse on this site, cookies collect data to enhance your experience and personalize the content and advertising you see.
Visit our Privacy Policy to learn more. By continuing to use the site, you agree to this use of cookies and data.
  • In Portugal
  • List of Countries
  • For 7 days
  • Water Temperature
  • Satellite Maps
  • Weather Map
  • Weather Widgets
  • user-avatar
    Login

    Hourly Weather Kalwa

    Today, 20 July, Saturday

    Time Temperature Precipitation Wind Pressure Humidity
    00:00 +16°C° 0.1 mm 1 mps 757 mmHg 91%
    01:00 +16°C° 0 mm 1 mps 757 mmHg 91%
    02:00 +16°C° 0 mm 1 mps 757 mmHg 91%
    03:00 +16°C° 0 mm 1 mps 757 mmHg 92%
    04:00 +15°C° 0 mm 1 mps 757 mmHg 92%
    05:00 +18°C° 0 mm 1 mps 758 mmHg 88%
    06:00 +20°C° 0 mm 1 mps 758 mmHg 84%
    07:00 +19°C° 0 mm 0 mps 758 mmHg 81%
    08:00 +23°C° 0 mm 1 mps 758 mmHg 74%
    09:00 +24°C° 0 mm 1 mps 758 mmHg 67%
    10:00 +26°C° 0 mm 1 mps 758 mmHg 59%
    11:00 +27°C° 0 mm 1 mps 758 mmHg 56%
    12:00 +27°C° 0 mm 1 mps 758 mmHg 53%
    13:00 +28°C° 0 mm 1 mps 758 mmHg 50%
    14:00 +28°C° 0 mm 2 mps 758 mmHg 52%
    15:00 +27°C° 0 mm 2 mps 758 mmHg 54%
    16:00 +27°C° 0 mm 2 mps 758 mmHg 55%
    17:00 +26°C° 0 mm 2 mps 758 mmHg 62%
    18:00 +25°C° 0 mm 2 mps 758 mmHg 69%
    19:00 +23°C° 0 mm 2 mps 758 mmHg 75%
    20:00 +21°C° 0 mm 2 mps 758 mmHg 77%
    21:00 +20°C° 0 mm 2 mps 758 mmHg 79%
    22:00 +19°C° 0 mm 2 mps 759 mmHg 81%
    23:00 +19°C° 0 mm 2 mps 758 mmHg 81%

    Tomorrow, 21 July, Sunday

    Time Temperature Precipitation Wind Pressure Humidity
    00:00 +19°C° 0 mm 2 mps 758 mmHg 81%
    01:00 +19°C° 0 mm 3 mps 758 mmHg 81%
    02:00 +18°C° 0 mm 3 mps 758 mmHg 81%
    03:00 +18°C° 0 mm 3 mps 758 mmHg 81%
    04:00 +18°C° 0 mm 3 mps 757 mmHg 81%
    05:00 +19°C° 0 mm 3 mps 757 mmHg 78%
    06:00 +21°C° 0 mm 4 mps 757 mmHg 75%
    07:00 +22°C° 0 mm 5 mps 757 mmHg 71%
    08:00 +23°C° 0 mm 5 mps 757 mmHg 70%
    09:00 +25°C° 0 mm 5 mps 757 mmHg 69%
    10:00 +26°C° 0 mm 5 mps 758 mmHg 68%
    11:00 +26°C° 1.2 mm 5 mps 758 mmHg 68%
    12:00 +27°C° 1.2 mm 4 mps 757 mmHg 69%
    13:00 +27°C° 1.2 mm 4 mps 757 mmHg 69%
    14:00 +27°C° 1 mm 4 mps 757 mmHg 69%
    15:00 +27°C° 1 mm 4 mps 758 mmHg 69%
    16:00 +26°C° 1 mm 4 mps 758 mmHg 70%
    17:00 +25°C° 0.4 mm 4 mps 758 mmHg 73%
    18:00 +24°C° 0.4 mm 3 mps 758 mmHg 77%
    19:00 +21°C° 0.4 mm 3 mps 758 mmHg 81%
    20:00 +20°C° 0 mm 3 mps 759 mmHg 83%
    21:00 +19°C° 0 mm 3 mps 759 mmHg 85%
    22:00 +18°C° 0 mm 2 mps 760 mmHg 87%
    23:00 +17°C° 0 mm 3 mps 760 mmHg 88%

    Day after tomorrow, 22 July, Monday

    Time Temperature Precipitation Wind Pressure Humidity
    00:00 +17°C° 0 mm 3 mps 760 mmHg 90%
    01:00 +16°C° 0 mm 3 mps 760 mmHg 92%
    02:00 +17°C° 0 mm 3 mps 760 mmHg 91%
    03:00 +17°C° 0 mm 3 mps 760 mmHg 89%
    04:00 +18°C° 0 mm 3 mps 760 mmHg 88%
    05:00 +18°C° 0 mm 4 mps 760 mmHg 85%
    06:00 +19°C° 0 mm 5 mps 761 mmHg 83%
    07:00 +19°C° 0 mm 6 mps 761 mmHg 80%
    08:00 +20°C° 0 mm 5 mps 761 mmHg 74%
    09:00 +21°C° 0 mm 5 mps 762 mmHg 68%
    10:00 +22°C° 0 mm 5 mps 762 mmHg 62%
    11:00 +22°C° 0 mm 5 mps 762 mmHg 59%
    12:00 +23°C° 0 mm 5 mps 762 mmHg 56%
    13:00 +23°C° 0 mm 6 mps 762 mmHg 53%
    14:00 +23°C° 0 mm 6 mps 762 mmHg 54%
    15:00 +23°C° 0 mm 6 mps 762 mmHg 56%
    16:00 +23°C° 0 mm 6 mps 762 mmHg 57%
    17:00 +21°C° 0 mm 5 mps 762 mmHg 62%
    18:00 +20°C° 0 mm 4 mps 762 mmHg 67%
    19:00 +19°C° 0 mm 3 mps 762 mmHg 72%
    20:00 +18°C° 0 mm 3 mps 762 mmHg 74%
    21:00 +17°C° 0 mm 3 mps 762 mmHg 76%
    22:00 +16°C° 0 mm 3 mps 763 mmHg 78%
    23:00 +16°C° 0 mm 3 mps 763 mmHg 81%

    23 July, Tuesday

    Time Temperature Precipitation Wind Pressure Humidity
    00:00 +15°C° 0 mm 2 mps 762 mmHg 84%
    01:00 +15°C° 0 mm 2 mps 762 mmHg 87%
    02:00 +15°C° 0 mm 2 mps 762 mmHg 86%
    03:00 +16°C° 0 mm 2 mps 762 mmHg 84%
    04:00 +16°C° 0 mm 2 mps 762 mmHg 83%
    05:00 +17°C° 0 mm 2 mps 762 mmHg 82%
    06:00 +18°C° 0 mm 2 mps 762 mmHg 81%
    07:00 +19°C° 0 mm 3 mps 762 mmHg 81%
    08:00 +19°C° 0 mm 3 mps 762 mmHg 81%
    09:00 +19°C° 0 mm 3 mps 762 mmHg 81%
    10:00 +19°C° 0 mm 3 mps 762 mmHg 82%
    11:00 +20°C° 0 mm 3 mps 762 mmHg 80%
    12:00 +21°C° 0 mm 3 mps 762 mmHg 78%
    13:00 +22°C° 0 mm 3 mps 762 mmHg 76%
    14:00 +22°C° 0 mm 3 mps 762 mmHg 77%
    15:00 +23°C° 0 mm 2 mps 761 mmHg 77%
    16:00 +23°C° 0 mm 2 mps 761 mmHg 77%
    17:00 +23°C° 0 mm 2 mps 761 mmHg 80%
    18:00 +23°C° 0 mm 1 mps 761 mmHg 82%
    19:00 +22°C° 0 mm 1 mps 761 mmHg 84%
    20:00 +21°C° 0 mm 1 mps 761 mmHg 88%
    21:00 +20°C° 0 mm 1 mps 761 mmHg 91%
    22:00 +18°C° 0 mm 1 mps 761 mmHg 94%
    23:00 +18°C° 0 mm 1 mps 761 mmHg 94%

    24 July, Wednesday

    Time Temperature Precipitation Wind Pressure Humidity
    00:00 +18°C° 0 mm 1 mps 761 mmHg 94%
    01:00 +18°C° 0 mm 1 mps 761 mmHg 95%
    02:00 +17°C° 0 mm 2 mps 761 mmHg 95%
    03:00 +17°C° 0 mm 2 mps 761 mmHg 95%
    04:00 +17°C° 0 mm 2 mps 761 mmHg 95%
    05:00 +19°C° 0 mm 2 mps 761 mmHg 91%
    06:00 +20°C° 0 mm 2 mps 761 mmHg 87%
    07:00 +23°C° 0 mm 2 mps 761 mmHg 82%
    08:00 +24°C° 0 mm 2 mps 761 mmHg 76%
    09:00 +26°C° 0 mm 2 mps 761 mmHg 71%
    10:00 +27°C° 0 mm 2 mps 762 mmHg 65%
    11:00 +28°C° 0 mm 2 mps 762 mmHg 63%
    12:00 +28°C° 0 mm 2 mps 762 mmHg 61%
    13:00 +29°C° 0 mm 2 mps 762 mmHg 59%
    14:00 +29°C° 0 mm 3 mps 761 mmHg 61%
    15:00 +28°C° 0 mm 3 mps 761 mmHg 63%
    16:00 +28°C° 0 mm 3 mps 761 mmHg 65%
    17:00 +26°C° 0 mm 3 mps 761 mmHg 71%
    18:00 +25°C° 0 mm 3 mps 761 mmHg 77%
    19:00 +23°C° 0 mm 2 mps 761 mmHg 83%
    20:00 +20°C° 0 mm 2 mps 761 mmHg 84%
    21:00 +20°C° 0 mm 1 mps 762 mmHg 86%
    22:00 +19°C° 0 mm 1 mps 762 mmHg 88%
    23:00 +18°C° 0 mm 1 mps 762 mmHg 88%

    25 July, Thursday

    Time Temperature Precipitation Wind Pressure Humidity
    00:00 +16°C° 0 mm 0 mps 762 mmHg 88%
    01:00 +15°C° 0 mm 0 mps 762 mmHg 88%
    02:00 +15°C° 0 mm 0 mps 762 mmHg 88%
    03:00 +15°C° 0 mm 0 mps 762 mmHg 89%
    04:00 +15°C° 0 mm 0 mps 762 mmHg 89%
    05:00 +17°C° 0 mm 0 mps 762 mmHg 83%
    06:00 +19°C° 0 mm 0 mps 763 mmHg 77%
    07:00 +20°C° 0 mm 0 mps 763 mmHg 72%
    08:00 +22°C° 0 mm 0 mps 763 mmHg 66%
    09:00 +26°C° 0 mm 1 mps 763 mmHg 60%
    10:00 +27°C° 0 mm 1 mps 763 mmHg 55%
    11:00 +28°C° 0 mm 2 mps 763 mmHg 53%
    12:00 +29°C° 0 mm 2 mps 763 mmHg 51%
    13:00 +29°C° 0 mm 3 mps 763 mmHg 50%
    14:00 +29°C° 0 mm 3 mps 762 mmHg 52%
    15:00 +29°C° 0 mm 3 mps 762 mmHg 53%
    16:00 +28°C° 0 mm 3 mps 762 mmHg 55%
    17:00 +27°C° 0 mm 3 mps 762 mmHg 63%
    18:00 +25°C° 0 mm 3 mps 762 mmHg 71%
    19:00 +22°C° 0 mm 3 mps 762 mmHg 79%
    20:00 +21°C° 0 mm 2 mps 762 mmHg 84%
    21:00 +20°C° 0 mm 2 mps 762 mmHg 89%
    22:00 +18°C° 0 mm 2 mps 763 mmHg 93%
    23:00 +18°C° 0 mm 2 mps 763 mmHg 94%
    Show more